Check out our new BloomSky Weather System.

Active alerts


No alerts


Thunder radar  blitzortung!


Rain radar more information rain snow radar


Visit our other weather sites:

Template documentation
and downloads

And another site



Weather Underground History page Text

Daily Summary for May 27, 2017 Units:  Metric    English   Both
« Previous Day
Next Day »
Daily Weekly Monthly Yearly Custom
  High: Low: Average:
Temperature: 34.6 °C 26.6 °C 29.6 °C
Dew Point: 26 °C 23.3 °C 24.9 °C
Humidity: 91 % 55 % 77 %
Wind Speed: 22.5 km/h 1.6 km/h 9.3 km/h
Wind Gust: 32.2 km/h - -
Wind:- - SSE
Pressure: 1013.1 hPa 1010 hPa -
Precipitation: 0 mm    
Historical Graphs
 
 
Tabular Data for May 27, 2017
Time Temperature Dew Point Pressure Wind Wind Speed Wind Gust Humidity Rainfall Rate (Hourly)
00:04 27.1 °C 24.9 °C 1011.7 hPa SSE 6.4 km/h 17.7 km/h 88 % 0 mm
00:09 27 °C 24.8 °C 1011.7 hPa SE 16.1 km/h 17.7 km/h 88 % 0 mm
00:14 27 °C 24.8 °C 1011.7 hPa SSE 19.3 km/h 19.3 km/h 88 % 0 mm
00:19 27 °C 24.8 °C 1011.7 hPa South 6.4 km/h 22.5 km/h 88 % 0 mm
00:24 27 °C 24.6 °C 1011.7 hPa SE 4.8 km/h 22.5 km/h 87 % 0 mm
00:29 27 °C 24.6 °C 1011.7 hPa SSE 6.4 km/h 22.5 km/h 87 % 0 mm
00:34 27 °C 24.6 °C 1012.1 hPa SSW 22.5 km/h 22.5 km/h 87 % 0 mm
00:39 26.9 °C 24.7 °C 1011.7 hPa SW 11.3 km/h 22.5 km/h 88 % 0 mm
00:44 26.9 °C 24.7 °C 1011.7 hPa SE 8 km/h 22.5 km/h 88 % 0 mm
00:49 26.9 °C 24.7 °C 1011.7 hPa SSE 8 km/h 22.5 km/h 88 % 0 mm
00:55 26.9 °C 24.7 °C 1011.7 hPa South 6.4 km/h 20.9 km/h 88 % 0 mm
01:00 26.9 °C 24.7 °C 1011.7 hPa ESE 8 km/h 17.7 km/h 88 % 0 mm
01:05 26.9 °C 24.7 °C 1011.7 hPa SSE 4.8 km/h 12.9 km/h 88 % 0 mm
01:10 26.9 °C 24.7 °C 1011.7 hPa South 9.7 km/h 17.7 km/h 88 % 0 mm
01:15 26.9 °C 24.7 °C 1011.7 hPa SW 14.5 km/h 17.7 km/h 88 % 0 mm
01:20 26.9 °C 24.7 °C 1011.4 hPa SW 9.7 km/h 19.3 km/h 88 % 0 mm
01:25 26.9 °C 24.9 °C 1011.4 hPa SSE 12.9 km/h 19.3 km/h 89 % 0 mm
01:30 26.9 °C 24.9 °C 1011.7 hPa SSE 16.1 km/h 19.3 km/h 89 % 0 mm
01:35 26.9 °C 24.9 °C 1011.7 hPa South 4.8 km/h 19.3 km/h 89 % 0 mm
01:40 26.9 °C 24.9 °C 1011.7 hPa SSE 9.7 km/h 17.7 km/h 89 % 0 mm
01:45 26.9 °C 24.9 °C 1011.7 hPa SE 6.4 km/h 17.7 km/h 89 % 0 mm
01:50 26.9 °C 24.9 °C 1011.4 hPa SE 4.8 km/h 12.9 km/h 89 % 0 mm
01:55 26.9 °C 24.9 °C 1011.4 hPa South 4.8 km/h 12.9 km/h 89 % 0 mm
02:00 26.9 °C 24.9 °C 1011.4 hPa SSW 6.4 km/h 12.9 km/h 89 % 0 mm
02:05 26.9 °C 24.9 °C 1011.4 hPa SSE 6.4 km/h 19.3 km/h 89 % 0 mm
02:10 26.9 °C 24.9 °C 1011.4 hPa ESE 4.8 km/h 19.3 km/h 89 % 0 mm
02:15 26.9 °C 24.9 °C 1011.4 hPa SSE 4.8 km/h 19.3 km/h 89 % 0 mm
02:20 26.9 °C 24.9 °C 1011.4 hPa SE 4.8 km/h 17.7 km/h 89 % 0 mm
02:25 26.9 °C 24.9 °C 1011.1 hPa South 4.8 km/h 17.7 km/h 89 % 0 mm
02:30 26.9 °C 24.9 °C 1011.1 hPa SE 11.3 km/h 17.7 km/h 89 % 0 mm
02:35 26.9 °C 24.9 °C 1011.1 hPa SE 4.8 km/h 16.1 km/h 89 % 0 mm
02:40 26.9 °C 24.9 °C 1011.1 hPa ESE 9.7 km/h 19.3 km/h 89 % 0 mm
02:45 26.9 °C 24.9 °C 1011.1 hPa SSW 8 km/h 19.3 km/h 89 % 0 mm
02:50 26.9 °C 24.9 °C 1011.1 hPa South 9.7 km/h 17.7 km/h 89 % 0 mm
02:55 26.9 °C 24.9 °C 1011.1 hPa SSE 4.8 km/h 17.7 km/h 89 % 0 mm
03:00 26.9 °C 24.9 °C 1011.1 hPa South 4.8 km/h 14.5 km/h 89 % 0 mm
03:05 26.9 °C 25.1 °C 1011.1 hPa SSE 8 km/h 14.5 km/h 90 % 0 mm
03:10 26.9 °C 25.1 °C 1011.1 hPa SSW 4.8 km/h 14.5 km/h 90 % 0 mm
03:15 26.9 °C 25.1 °C 1011.1 hPa SSW 9.7 km/h 14.5 km/h 90 % 0 mm
03:20 26.9 °C 25.1 °C 1011.1 hPa SE 4.8 km/h 16.1 km/h 90 % 0 mm
03:25 26.9 °C 25.1 °C 1011.1 hPa SW 9.7 km/h 16.1 km/h 90 % 0 mm
03:30 26.9 °C 25.1 °C 1011.1 hPa SSE 9.7 km/h 16.1 km/h 90 % 0 mm
03:35 26.8 °C 25 °C 1011.1 hPa SSW 4.8 km/h 16.1 km/h 90 % 0 mm
03:40 26.8 °C 25 °C 1011.1 hPa SSW 20.9 km/h 20.9 km/h 90 % 0 mm
03:45 26.8 °C 25 °C 1011.1 hPa SSE 8 km/h 20.9 km/h 90 % 0 mm
03:50 26.8 °C 25 °C 1011.1 hPa South 6.4 km/h 20.9 km/h 90 % 0 mm
03:55 26.8 °C 25 °C 1011.1 hPa South 9.7 km/h 20.9 km/h 90 % 0 mm
04:00 26.9 °C 25.1 °C 1011.4 hPa SE 12.9 km/h 19.3 km/h 90 % 0 mm
04:05 26.9 °C 25.1 °C 1011.4 hPa SE 4.8 km/h 22.5 km/h 90 % 0 mm
04:10 26.9 °C 25.1 °C 1011.4 hPa SSW 4.8 km/h 22.5 km/h 90 % 0 mm
04:15 26.8 °C 25 °C 1011.4 hPa SSW 8 km/h 22.5 km/h 90 % 0 mm
04:20 26.7 °C 25.1 °C 1011.4 hPa South 6.4 km/h 16.1 km/h 91 % 0 mm
04:25 26.6 °C 25 °C 1011.1 hPa SSE 8 km/h 16.1 km/h 91 % 0 mm
04:30 26.6 °C 25 °C 1011.1 hPa SSE 6.4 km/h 16.1 km/h 91 % 0 mm
04:35 26.6 °C 25 °C 1011.1 hPa SSW 3.2 km/h 16.1 km/h 91 % 0 mm
04:40 26.6 °C 25 °C 1011.4 hPa South 8 km/h 16.1 km/h 91 % 0 mm
04:45 26.6 °C 25 °C 1011.4 hPa SSE 6.4 km/h 14.5 km/h 91 % 0 mm
04:51 26.6 °C 25 °C 1011.4 hPa SE 4.8 km/h 14.5 km/h 91 % 0 mm
04:56 26.7 °C 25.1 °C 1011.1 hPa SSE 6.4 km/h 14.5 km/h 91 % 0 mm
05:01 26.7 °C 25.1 °C 1011.4 hPa South 4.8 km/h 14.5 km/h 91 % 0 mm
05:06 26.7 °C 24.9 °C 1011.4 hPa SE 6.4 km/h 11.3 km/h 90 % 0 mm
05:11 26.7 °C 24.9 °C 1011.4 hPa South 4.8 km/h 12.9 km/h 90 % 0 mm
05:15 26.7 °C 24.9 °C 1011.4 hPa SSE 6.4 km/h 12.9 km/h 90 % 0 mm
05:25 26.8 °C 25 °C 1011.1 hPa South 12.9 km/h 12.9 km/h 90 % 0 mm
05:30 26.8 °C 24.8 °C 1011.4 hPa SSE 8 km/h 17.7 km/h 89 % 0 mm
05:35 26.8 °C 24.8 °C 1011.4 hPa South 6.4 km/h 17.7 km/h 89 % 0 mm
05:40 26.8 °C 24.8 °C 1011.4 hPa SSW 8 km/h 17.7 km/h 89 % 0 mm
05:45 26.9 °C 24.9 °C 1011.4 hPa SSE 11.3 km/h 17.7 km/h 89 % 0 mm
05:50 26.9 °C 24.9 °C 1011.4 hPa SE 6.4 km/h 17.7 km/h 89 % 0 mm
05:55 26.9 °C 24.9 °C 1011.4 hPa SE 8 km/h 20.9 km/h 89 % 0 mm
06:00 26.9 °C 24.9 °C 1011.4 hPa South 4.8 km/h 20.9 km/h 89 % 0 mm
06:05 26.9 °C 24.9 °C 1011.7 hPa SE 6.4 km/h 20.9 km/h 89 % 0 mm
06:10 26.9 °C 24.9 °C 1011.7 hPa South 9.7 km/h 12.9 km/h 89 % 0 mm
06:15 26.9 °C 24.9 °C 1011.7 hPa SSW 9.7 km/h 12.9 km/h 89 % 0 mm
06:20 26.9 °C 24.9 °C 1011.7 hPa SE 8 km/h 20.9 km/h 89 % 0 mm
06:25 26.9 °C 24.9 °C 1011.7 hPa South 4.8 km/h 20.9 km/h 89 % 0 mm
06:30 26.9 °C 24.9 °C 1012.1 hPa South 3.2 km/h 20.9 km/h 89 % 0 mm
06:35 26.9 °C 24.9 °C 1012.1 hPa South 8 km/h 14.5 km/h 89 % 0 mm
06:40 26.8 °C 24.8 °C 1012.1 hPa SW 4.8 km/h 12.9 km/h 89 % 0 mm
06:45 26.8 °C 24.8 °C 1012.1 hPa SSW 8 km/h 17.7 km/h 89 % 0 mm
06:50 26.9 °C 24.9 °C 1012.1 hPa South 4.8 km/h 17.7 km/h 89 % 0 mm
06:55 26.9 °C 24.9 °C 1012.1 hPa SSW 9.7 km/h 17.7 km/h 89 % 0 mm
07:00 26.9 °C 24.9 °C 1012.1 hPa ESE 6.4 km/h 16.1 km/h 89 % 0 mm
07:05 26.9 °C 24.9 °C 1012.1 hPa SSE 4.8 km/h 17.7 km/h 89 % 0 mm
07:10 26.9 °C 24.7 °C 1012.4 hPa South 4.8 km/h 17.7 km/h 88 % 0 mm
07:16 26.9 °C 24.7 °C 1012.1 hPa SSE 6.4 km/h 17.7 km/h 88 % 0 mm
07:21 27 °C 24.8 °C 1012.1 hPa SSE 8 km/h 14.5 km/h 88 % 0 mm
07:26 27.1 °C 24.9 °C 1012.4 hPa SE 8 km/h 14.5 km/h 88 % 0 mm
07:31 27.1 °C 24.9 °C 1012.4 hPa South 6.4 km/h 14.5 km/h 88 % 0 mm
07:36 27.1 °C 24.9 °C 1012.4 hPa SSW 6.4 km/h 12.9 km/h 88 % 0 mm
07:41 27.2 °C 25 °C 1012.4 hPa SE 6.4 km/h 12.9 km/h 88 % 0 mm
07:46 27.1 °C 24.9 °C 1012.4 hPa SSE 11.3 km/h 14.5 km/h 88 % 0 mm
07:51 27.2 °C 25 °C 1012.4 hPa SSE 6.4 km/h 14.5 km/h 88 % 0 mm
07:56 27.3 °C 25.1 °C 1012.4 hPa SE 3.2 km/h 14.5 km/h 88 % 0 mm
08:01 27.3 °C 24.9 °C 1012.8 hPa South 6.4 km/h 14.5 km/h 87 % 0 mm
08:06 27.3 °C 25.1 °C 1012.4 hPa ESE 6.4 km/h 14.5 km/h 88 % 0 mm
08:11 27.3 °C 24.9 °C 1012.8 hPa SW 12.9 km/h 14.5 km/h 87 % 0 mm
08:16 27.3 °C 24.9 °C 1012.8 hPa SSE 12.9 km/h 17.7 km/h 87 % 0 mm
08:21 27.3 °C 24.9 °C 1012.8 hPa SSW 6.4 km/h 17.7 km/h 87 % 0 mm
08:26 27.4 °C 25 °C 1012.8 hPa SE 3.2 km/h 17.7 km/h 87 % 0 mm
08:31 27.4 °C 25 °C 1012.8 hPa SE 8 km/h 16.1 km/h 87 % 0 mm
08:36 27.6 °C 25.2 °C 1012.8 hPa SE 6.4 km/h 17.7 km/h 87 % 0 mm
08:41 27.7 °C 25.1 °C 1012.8 hPa SSE 11.3 km/h 17.7 km/h 86 % 0 mm
08:46 27.8 °C 25.2 °C 1012.8 hPa South 8 km/h 17.7 km/h 86 % 0 mm
08:51 27.8 °C 25.2 °C 1012.8 hPa SSE 6.4 km/h 14.5 km/h 86 % 0 mm
08:52 27.8 °C 25.2 °C 1012.8 hPa SE 6.4 km/h 14.5 km/h 86 % 0 mm
08:57 27.8 °C 25.2 °C 1013.1 hPa South 11.3 km/h 17.7 km/h 86 % 0 mm
09:02 27.9 °C 25.1 °C 1012.8 hPa SSW 6.4 km/h 19.3 km/h 85 % 0 mm
09:07 28 °C 25.2 °C 1012.8 hPa SSE 8 km/h 19.3 km/h 85 % 0 mm
09:12 28.1 °C 25.3 °C 1012.8 hPa SE 8 km/h 19.3 km/h 85 % 0 mm
09:17 28.2 °C 25.2 °C 1012.8 hPa SE 4.8 km/h 16.1 km/h 84 % 0 mm
09:22 28.4 °C 25.2 °C 1013.1 hPa SSE 8 km/h 16.1 km/h 83 % 0 mm
09:27 28.6 °C 25.4 °C 1013.1 hPa South 6.4 km/h 16.1 km/h 83 % 0 mm
09:32 28.7 °C 25.3 °C 1013.1 hPa SSE 14.5 km/h 14.5 km/h 82 % 0 mm
09:37 28.9 °C 25.5 °C 1013.1 hPa SW 8 km/h 16.1 km/h 82 % 0 mm
09:42 29.1 °C 25.5 °C 1013.1 hPa SSE 6.4 km/h 16.1 km/h 81 % 0 mm
09:47 29.2 °C 25.4 °C 1013.1 hPa SE 4.8 km/h 16.1 km/h 80 % 0 mm
09:52 29.3 °C 25.1 °C 1013.1 hPa South 11.3 km/h 25.7 km/h 78 % 0 mm
10:02 29.4 °C 25.2 °C 1013.1 hPa SSE 12.9 km/h 25.7 km/h 78 % 0 mm
10:07 29.8 °C 25.3 °C 1013.1 hPa SSE 9.7 km/h 24.1 km/h 77 % 0 mm
10:12 30.1 °C 25.4 °C 1013.1 hPa SW 11.3 km/h 20.9 km/h 76 % 0 mm
10:17 30.2 °C 25.5 °C 1013.1 hPa SSW 8 km/h 20.9 km/h 76 % 0 mm
10:22 30.3 °C 25.6 °C 1013.1 hPa SSW 4.8 km/h 20.9 km/h 76 % 0 mm
10:27 30.7 °C 25.8 °C 1013.1 hPa SSW 8 km/h 20.9 km/h 75 % 0 mm
10:32 31.2 °C 25.8 °C 1013.1 hPa SSW 11.3 km/h 14.5 km/h 73 % 0 mm
10:37 31.3 °C 25.6 °C 1013.1 hPa ESE 12.9 km/h 20.9 km/h 72 % 0 mm
10:40 31.2 °C 25.5 °C 1013.1 hPa SSE 11.3 km/h 20.9 km/h 72 % 0 mm
10:45 30.9 °C 25.5 °C 1013.1 hPa SSW 11.3 km/h 20.9 km/h 73 % 0 mm
10:50 31.1 °C 25.7 °C 1012.8 hPa South 11.3 km/h 19.3 km/h 73 % 0 mm
10:55 31.2 °C 25.5 °C 1013.1 hPa SSE 8 km/h 20.9 km/h 72 % 0 mm
11:00 31.5 °C 25.6 °C 1013.1 hPa SSW 14.5 km/h 22.5 km/h 71 % 0 mm
11:05 31.7 °C 25.8 °C 1012.8 hPa South 4.8 km/h 22.5 km/h 71 % 0 mm
11:10 31.9 °C 26 °C 1012.8 hPa SSE 8 km/h 22.5 km/h 71 % 0 mm
11:15 32.2 °C 25.8 °C 1012.8 hPa South 11.3 km/h 20.9 km/h 69 % 0 mm
11:20 32.1 °C 25.7 °C 1012.8 hPa South 9.7 km/h 25.7 km/h 69 % 0 mm
11:25 32.2 °C 25.5 °C 1012.8 hPa SSW 14.5 km/h 25.7 km/h 68 % 0 mm
11:30 32.4 °C 26 °C 1012.8 hPa SSE 8 km/h 25.7 km/h 69 % 0 mm
11:35 32.6 °C 25.9 °C 1013.1 hPa SSE 12.9 km/h 22.5 km/h 68 % 0 mm
11:40 32.6 °C 25.7 °C 1012.8 hPa SE 14.5 km/h 24.1 km/h 67 % 0 mm
11:45 32.4 °C 25.5 °C 1012.8 hPa SE 16.1 km/h 24.1 km/h 67 % 0 mm
11:49 32.2 °C 25.5 °C 1012.8 hPa ESE 14.5 km/h 24.1 km/h 68 % 0 mm
11:54 32 °C 25.3 °C 1012.8 hPa SSE 8 km/h 24.1 km/h 68 % 0 mm
11:59 31.9 °C 25.5 °C 1012.8 hPa South 8 km/h 22.5 km/h 69 % 0 mm
12:04 31.9 °C 25.7 °C 1012.8 hPa SE 12.9 km/h 22.5 km/h 70 % 0 mm
12:09 32.1 °C 25.7 °C 1012.8 hPa South 4.8 km/h 22.5 km/h 69 % 0 mm
12:14 32.3 °C 25.9 °C 1012.8 hPa SSE 8 km/h 22.5 km/h 69 % 0 mm
12:19 32.4 °C 25.5 °C 1012.8 hPa SE 11.3 km/h 22.5 km/h 67 % 0 mm
12:24 32.6 °C 25.7 °C 1012.8 hPa SE 14.5 km/h 20.9 km/h 67 % 0 mm
12:29 32.6 °C 25.4 °C 1012.8 hPa SW 14.5 km/h 32.2 km/h 66 % 0 mm
12:34 32.7 °C 25.5 °C 1012.8 hPa ESE 11.3 km/h 32.2 km/h 66 % 0 mm
12:39 32.9 °C 25.7 °C 1012.8 hPa South 14.5 km/h 32.2 km/h 66 % 0 mm
12:44 33.2 °C 25.5 °C 1012.8 hPa SE 11.3 km/h 24.1 km/h 64 % 0 mm
12:45 33.2 °C 25.5 °C 1012.8 hPa SSW 11.3 km/h 24.1 km/h 64 % 0 mm
12:50 33.1 °C 25.1 °C 1012.8 hPa SSE 12.9 km/h 24.1 km/h 63 % 0 mm
12:55 33.1 °C 25.6 °C 1012.8 hPa SSE 16.1 km/h 24.1 km/h 65 % 0 mm
13:01 33.2 °C 25.5 °C 1012.4 hPa East 12.9 km/h 24.1 km/h 64 % 0 mm
13:06 33.2 °C 25.2 °C 1012.4 hPa SSE 12.9 km/h 25.7 km/h 63 % 0 mm
13:11 33.3 °C 25.6 °C 1012.4 hPa SSE 17.7 km/h 25.7 km/h 64 % 0 mm
13:16 33.6 °C 25.3 °C 1012.4 hPa South 8 km/h 25.7 km/h 62 % 0 mm
13:21 34.1 °C 25.5 °C 1012.4 hPa SSW 14.5 km/h 24.1 km/h 61 % 0 mm
13:26 33.6 °C 25.3 °C 1012.4 hPa South 12.9 km/h 24.1 km/h 62 % 0 mm
13:31 33.6 °C 25.6 °C 1012.4 hPa South 8 km/h 20.9 km/h 63 % 0 mm
13:36 33.5 °C 25.2 °C 1012.1 hPa South 16.1 km/h 24.1 km/h 62 % 0 mm
13:41 33.6 °C 25.6 °C 1012.1 hPa SW 4.8 km/h 24.1 km/h 63 % 0 mm
13:46 33.8 °C 25.2 °C 1012.1 hPa SSE 12.9 km/h 24.1 km/h 61 % 0 mm
13:51 33.9 °C 25.6 °C 1012.1 hPa SSE 12.9 km/h 24.1 km/h 62 % 0 mm
13:56 33.9 °C 25.9 °C 1012.1 hPa SW 9.7 km/h 24.1 km/h 63 % 0 mm
14:01 34.2 °C 25.3 °C 1011.7 hPa SSW 12.9 km/h 25.7 km/h 60 % 0 mm
14:06 34.1 °C 24.9 °C 1011.7 hPa SSE 12.9 km/h 32.2 km/h 59 % 0 mm
14:11 34.1 °C 25.2 °C 1011.7 hPa ESE 17.7 km/h 32.2 km/h 60 % 0 mm
14:16 34.2 °C 25.3 °C 1011.7 hPa SE 19.3 km/h 32.2 km/h 60 % 0 mm
14:21 34.2 °C 25 °C 1011.7 hPa SSW 11.3 km/h 25.7 km/h 59 % 0 mm
14:26 34.2 °C 25.3 °C 1011.7 hPa SE 9.7 km/h 25.7 km/h 60 % 0 mm
14:31 33.7 °C 25.1 °C 1011.7 hPa SSE 4.8 km/h 25.7 km/h 61 % 0 mm
14:36 33.7 °C 25.4 °C 1011.4 hPa SSE 6.4 km/h 19.3 km/h 62 % 0 mm
14:41 33.6 °C 24.8 °C 1011.7 hPa South 9.7 km/h 19.3 km/h 60 % 0 mm
14:46 33.3 °C 24.8 °C 1011.4 hPa ESE 14.5 km/h 30.6 km/h 61 % 0 mm
14:51 33.4 °C 24.6 °C 1011.4 hPa SE 9.7 km/h 30.6 km/h 60 % 0 mm
14:56 33.4 °C 24.8 °C 1011.4 hPa South 3.2 km/h 30.6 km/h 61 % 0 mm
15:01 33.8 °C 24.9 °C 1011.1 hPa SSW 12.9 km/h 24.1 km/h 60 % 0 mm
15:06 34.1 °C 25.2 °C 1011.1 hPa SE 14.5 km/h 24.1 km/h 60 % 0 mm
15:11 34.3 °C 25.1 °C 1011.1 hPa SSW 11.3 km/h 22.5 km/h 59 % 0 mm
15:16 34.1 °C 24.9 °C 1011.1 hPa SSE 6.4 km/h 22.5 km/h 59 % 0 mm
15:21 34.1 °C 24.9 °C 1011.1 hPa SE 9.7 km/h 27.4 km/h 59 % 0 mm
15:26 34.1 °C 24.9 °C 1011.1 hPa SE 19.3 km/h 27.4 km/h 59 % 0 mm
15:31 34.1 °C 25.2 °C 1011.1 hPa SSE 14.5 km/h 27.4 km/h 60 % 0 mm
15:36 34.1 °C 25.5 °C 1011.1 hPa South 12.9 km/h 24.1 km/h 61 % 0 mm
15:46 34.6 °C 25.1 °C 1010.7 hPa South 6.4 km/h 24.1 km/h 58 % 0 mm
15:51 34.6 °C 24.5 °C 1010.7 hPa SSE 12.9 km/h 29 km/h 56 % 0 mm
15:56 34.5 °C 25 °C 1010.7 hPa WSW 12.9 km/h 29 km/h 58 % 0 mm
16:01 34.5 °C 25 °C 1010.7 hPa SE 19.3 km/h 29 km/h 58 % 0 mm
16:06 34.4 °C 24.9 °C 1010.7 hPa SSE 12.9 km/h 22.5 km/h 58 % 0 mm
16:08 34.4 °C 24.9 °C 1010.7 hPa ESE 12.9 km/h 22.5 km/h 58 % 0 mm
16:13 34.1 °C 24.7 °C 1010.7 hPa ESE 14.5 km/h 24.1 km/h 58 % 0 mm
16:18 33.7 °C 25.1 °C 1010.4 hPa SE 9.7 km/h 24.1 km/h 61 % 0 mm
16:23 33.8 °C 24.9 °C 1010.4 hPa South 9.7 km/h 24.1 km/h 60 % 0 mm
16:28 33.9 °C 25 °C 1010.4 hPa South 11.3 km/h 22.5 km/h 60 % 0 mm
16:33 34.1 °C 24.9 °C 1010.4 hPa SSE 12.9 km/h 22.5 km/h 59 % 0 mm
16:38 34.2 °C 25 °C 1010.4 hPa SE 8 km/h 22.5 km/h 59 % 0 mm
16:43 34.1 °C 24.9 °C 1010.4 hPa SSE 6.4 km/h 29 km/h 59 % 0 mm
16:48 34.1 °C 24.9 °C 1010.4 hPa SSE 14.5 km/h 29 km/h 59 % 0 mm
16:53 34.1 °C 24.7 °C 1010.4 hPa SE 9.7 km/h 29 km/h 58 % 0 mm
16:58 33.9 °C 24.8 °C 1010.4 hPa SSE 17.7 km/h 27.4 km/h 59 % 0 mm
17:03 33.8 °C 24.7 °C 1010.4 hPa ESE 14.5 km/h 22.5 km/h 59 % 0 mm
17:08 33.8 °C 24.4 °C 1010.4 hPa SSE 14.5 km/h 22.5 km/h 58 % 0 mm
17:13 33.7 °C 24.3 °C 1010.4 hPa SE 11.3 km/h 27.4 km/h 58 % 0 mm
17:18 33.6 °C 23.3 °C 1010.4 hPa SSE 20.9 km/h 27.4 km/h 55 % 0 mm
17:23 33.6 °C 24.2 °C 1010.4 hPa ESE 9.7 km/h 27.4 km/h 58 % 0 mm
17:28 33.6 °C 23.9 °C 1010.4 hPa ESE 11.3 km/h 22.5 km/h 57 % 0 mm
17:33 33.6 °C 23.6 °C 1010.4 hPa SSE 8 km/h 22.5 km/h 56 % 0 mm
17:38 33.3 °C 23.3 °C 1010.4 hPa SSW 12.9 km/h 22.5 km/h 56 % 0 mm
17:43 33.3 °C 23.6 °C 1010.4 hPa SE 8 km/h 22.5 km/h 57 % 0 mm
17:48 33.3 °C 24.2 °C 1010.4 hPa SSW 9.7 km/h 22.5 km/h 59 % 0 mm
17:53 33.2 °C 24.1 °C 1010.4 hPa South 16.1 km/h 24.1 km/h 59 % 0 mm
17:58 33.1 °C 24 °C 1010.4 hPa East 6.4 km/h 24.1 km/h 59 % 0 mm
18:03 33.1 °C 23.4 °C 1010.4 hPa SE 12.9 km/h 24.1 km/h 57 % 0 mm
18:08 33.1 °C 23.7 °C 1010.4 hPa SE 9.7 km/h 24.1 km/h 58 % 0 mm
18:13 33.1 °C 24 °C 1010.4 hPa South 19.3 km/h 24.1 km/h 59 % 0 mm
18:18 32.8 °C 24.3 °C 1010.4 hPa South 20.9 km/h 24.1 km/h 61 % 0 mm
18:19 32.8 °C 24.3 °C 1010.4 hPa SSE 12.9 km/h 24.1 km/h 61 % 0 mm
18:24 32.6 °C 24.4 °C 1010 hPa SSE 8 km/h 24.1 km/h 62 % 0 mm
18:29 32.6 °C 24.4 °C 1010 hPa SW 16.1 km/h 24.1 km/h 62 % 0 mm
18:34 32.4 °C 24.4 °C 1010 hPa SE 8 km/h 27.4 km/h 63 % 0 mm
18:39 32.3 °C 24.6 °C 1010 hPa East 16.1 km/h 27.4 km/h 64 % 0 mm
18:44 32.1 °C 24.4 °C 1010 hPa WSW 12.9 km/h 27.4 km/h 64 % 0 mm
18:49 31.9 °C 24.8 °C 1010 hPa SE 11.3 km/h 25.7 km/h 66 % 0 mm
18:54 31.8 °C 24.4 °C 1010 hPa SE 11.3 km/h 25.7 km/h 65 % 0 mm
18:59 31.7 °C 24.6 °C 1010 hPa SW 12.9 km/h 20.9 km/h 66 % 0 mm
19:04 31.6 °C 24.5 °C 1010 hPa SE 11.3 km/h 20.9 km/h 66 % 0 mm
19:09 31.3 °C 24.4 °C 1010 hPa SSE 9.7 km/h 27.4 km/h 67 % 0 mm
19:14 31.1 °C 24.5 °C 1010 hPa SSE 9.7 km/h 27.4 km/h 68 % 0 mm
19:19 30.9 °C 24.5 °C 1010 hPa ENE 9.7 km/h 27.4 km/h 69 % 0 mm
19:24 30.8 °C 24.7 °C 1010 hPa ESE 17.7 km/h 20.9 km/h 70 % 0 mm
19:29 30.6 °C 24.7 °C 1010 hPa ESE 9.7 km/h 22.5 km/h 71 % 0 mm
19:34 30.4 °C 24.8 °C 1010 hPa South 8 km/h 22.5 km/h 72 % 0 mm
19:39 30.3 °C 24.9 °C 1010 hPa South 9.7 km/h 22.5 km/h 73 % 0 mm
19:44 30.2 °C 24.8 °C 1010 hPa South 4.8 km/h 20.9 km/h 73 % 0 mm
19:49 30.1 °C 24.7 °C 1010 hPa SE 6.4 km/h 20.9 km/h 73 % 0 mm
19:55 29.9 °C 24.5 °C 1010 hPa SSE 8 km/h 17.7 km/h 73 % 0 mm
20:00 29.7 °C 24.3 °C 1010 hPa South 11.3 km/h 17.7 km/h 73 % 0 mm
20:05 29.6 °C 24.5 °C 1010 hPa SE 6.4 km/h 19.3 km/h 74 % 0 mm
20:10 29.4 °C 24.3 °C 1010 hPa East 8 km/h 19.3 km/h 74 % 0 mm
20:15 29.2 °C 24.3 °C 1010.4 hPa SSE 3.2 km/h 19.3 km/h 75 % 0 mm
20:20 29.1 °C 24.2 °C 1010.4 hPa SE 4.8 km/h 17.7 km/h 75 % 0 mm
20:25 29 °C 24.3 °C 1010 hPa South 4.8 km/h 17.7 km/h 76 % 0 mm
20:30 28.8 °C 24.1 °C 1010.4 hPa SSE 3.2 km/h 17.7 km/h 76 % 0 mm
20:35 28.7 °C 24.3 °C 1010.4 hPa SE 8 km/h 17.7 km/h 77 % 0 mm
20:40 28.5 °C 24.3 °C 1010.4 hPa SSW 1.6 km/h 16.1 km/h 78 % 0 mm
20:45 28.4 °C 24.4 °C 1010.4 hPa SE 3.2 km/h 14.5 km/h 79 % 0 mm
20:50 28.3 °C 24.3 °C 1010.4 hPa SSE 6.4 km/h 14.5 km/h 79 % 0 mm
20:55 28.2 °C 24.4 °C 1010.7 hPa ESE 11.3 km/h 12.9 km/h 80 % 0 mm
21:00 28.2 °C 24.4 °C 1010.4 hPa South 6.4 km/h 14.5 km/h 80 % 0 mm
21:05 28 °C 24.2 °C 1010.4 hPa South 4.8 km/h 14.5 km/h 80 % 0 mm
21:10 27.9 °C 24.1 °C 1010.7 hPa SE 9.7 km/h 14.5 km/h 80 % 0 mm
21:15 27.8 °C 24.2 °C 1010.7 hPa South 6.4 km/h 14.5 km/h 81 % 0 mm
21:20 27.7 °C 24.1 °C 1010.7 hPa SE 8 km/h 12.9 km/h 81 % 0 mm
21:25 27.7 °C 24.1 °C 1010.7 hPa SSE 16.1 km/h 22.5 km/h 81 % 0 mm
21:30 27.7 °C 24.3 °C 1010.7 hPa ESE 14.5 km/h 22.5 km/h 82 % 0 mm
21:35 27.6 °C 24.2 °C 1010.7 hPa SSE 8 km/h 22.5 km/h 82 % 0 mm
21:40 27.5 °C 24.4 °C 1010.7 hPa South 6.4 km/h 20.9 km/h 83 % 0 mm
21:45 27.4 °C 24.3 °C 1010.7 hPa South 3.2 km/h 19.3 km/h 83 % 0 mm
21:50 27.3 °C 24.4 °C 1010.7 hPa South 8 km/h 16.1 km/h 84 % 0 mm
21:55 27.3 °C 24.4 °C 1010.7 hPa SE 3.2 km/h 17.7 km/h 84 % 0 mm
22:00 27.2 °C 24.3 °C 1010.7 hPa SSE 6.4 km/h 17.7 km/h 84 % 0 mm
22:05 27.2 °C 24.5 °C 1010.7 hPa SE 6.4 km/h 17.7 km/h 85 % 0 mm
22:10 27.1 °C 24.4 °C 1010.7 hPa South 6.4 km/h 17.7 km/h 85 % 0 mm
22:15 27.1 °C 24.4 °C 1010.7 hPa SSE 6.4 km/h 16.1 km/h 85 % 0 mm
22:20 27 °C 24.3 °C 1010.7 hPa South 9.7 km/h 17.7 km/h 85 % 0 mm
22:25 27 °C 24.5 °C 1010.7 hPa SSW 16.1 km/h 17.7 km/h 86 % 0 mm
22:30 26.9 °C 24.4 °C 1010.7 hPa SE 8 km/h 20.9 km/h 86 % 0 mm
22:35 26.9 °C 24.4 °C 1010.7 hPa SE 11.3 km/h 20.9 km/h 86 % 0 mm
22:40 26.9 °C 24.4 °C 1010.7 hPa SE 9.7 km/h 20.9 km/h 86 % 0 mm
22:45 26.9 °C 24.5 °C 1010.7 hPa SSE 8 km/h 19.3 km/h 87 % 0 mm
22:50 26.8 °C 24.5 °C 1010.7 hPa South 9.7 km/h 19.3 km/h 87 % 0 mm
22:55 26.8 °C 24.5 °C 1010.7 hPa SSW 6.4 km/h 16.1 km/h 87 % 0 mm
23:00 26.7 °C 24.5 °C 1010.7 hPa SSE 4.8 km/h 16.1 km/h 88 % 0 mm
23:05 26.7 °C 24.5 °C 1010.7 hPa South 4.8 km/h 16.1 km/h 88 % 0 mm
23:10 26.7 °C 24.5 °C 1010.7 hPa South 6.4 km/h 19.3 km/h 88 % 0 mm
23:15 26.7 °C 24.5 °C 1011.1 hPa SSE 9.7 km/h 19.3 km/h 88 % 0 mm
23:20 26.7 °C 24.5 °C 1011.1 hPa SE 11.3 km/h 19.3 km/h 88 % 0 mm
23:25 26.7 °C 24.5 °C 1010.7 hPa SSE 9.7 km/h 14.5 km/h 88 % 0 mm
23:30 26.8 °C 24.6 °C 1010.7 hPa SSW 3.2 km/h 17.7 km/h 88 % 0 mm
23:35 26.8 °C 24.6 °C 1010.7 hPa SSE 6.4 km/h 17.7 km/h 88 % 0 mm
23:41 26.8 °C 24.6 °C 1010.4 hPa South 8 km/h 17.7 km/h 88 % 0 mm
23:45 26.8 °C 24.6 °C 1010.4 hPa East 11.3 km/h 17.7 km/h 88 % 0 mm
23:50 26.8 °C 24.6 °C 1010 hPa SSE 9.7 km/h 17.7 km/h 88 % 0 mm
23:55 26.8 °C 24.8 °C 1010 hPa SSE 8 km/h 20.9 km/h 89 % 0 mm
Spring, Texas: Villages of Bridgestone
Compliments of Weather Underground - 2.75 mb

Script developed by  Jim McMurry - jmcmurry@mwt.net Adapted for the template by  Wim van der Kuil - Leuven-Template.eu

You find our weather info also at:

UK Metoffice

WeatherCloud

Weather Underground

Mid-South Weather Network

AWEKAS

Citizen Weather Observer Program (CWOP)

HAMweather, WeatherForYou, PWS Weather

Equipment we use:

Weather-station
Davis Vantage Vue

Weather-program
Meteohub

Weather-server
Debian 7.9 x86 (Guest)

Provider
DreamHost

Davis Vantage Vue

Meteohub

Debian 7.9 x86 (Guest)

DreamHost